Location: Bannatyne
(13.0833°N, 59.5333°W)
Time: 10:50:33
(UTC+00:00)

Courier 1B Rocket - Visible Passes

Search period start: 28 January 2020 00:00
Search period end: 07 February 2020 00:00
Orbit: 920 x 1202 km, 28.2° (Epoch: 27 January)

Date Brightness Start Highest point End Pass type
(mag) Time Alt. Az. Time Alt. Az. Time Alt. Az.
28 Jan 7.7 09:21:36 10° SSW 09:26:55 20° SSE 09:32:16 10° ESE visible
28 Jan 7.3 22:41:46 10° WSW 22:45:47 18° SSW 22:49:48 10° S visible
29 Jan 7.8 08:22:39 10° S 08:25:33 12° SSE 08:28:27 10° SE visible
30 Jan 7.1 09:11:34 10° SSW 09:18:07 30° SSE 09:24:44 10° E visible
31 Jan 7.4 08:11:35 10° SSW 08:16:49 20° SSE 08:22:10 10° ESE visible
01 Feb 7.7 07:13:54 11° SSE 07:15:31 12° SSE 07:18:15 10° SE visible
01 Feb 6.4 09:02:03 10° SW 09:09:15 45° SSE 09:16:38 10° E visible
02 Feb 6.8 08:04:12 20° S 08:08:00 30° SSE 08:14:35 10° E visible
02 Feb 5.5 09:53:59 10° WSW 10:01:42 89° NNW 10:09:35 10° ENE visible
03 Feb 7.3 07:07:58 19° SE 07:07:58 19° SE 07:11:58 10° ESE visible
03 Feb 5.7 08:54:25 17° SW 09:00:23 66° SSE 09:08:08 10° ENE visible
04 Feb 6.0 07:58:03 43° S 07:59:08 45° SSE 08:06:26 10° ENE visible
04 Feb 5.5 09:45:24 10° WSW 09:52:56 65° NNW 10:00:44 10° ENE visible
05 Feb 7.3 07:01:34 20° ESE 07:01:34 20° ESE 07:04:22 10° E visible
05 Feb 5.3 08:48:00 35° WSW 08:51:34 87° NNW 08:59:24 10° ENE visible
06 Feb 5.7 07:51:23 60° ESE 07:51:23 60° ESE 07:57:55 10° ENE visible
06 Feb 5.8 09:37:49 13° W 09:44:17 48° NNW 09:51:48 10° NE visible
